Regional Weather Roundup
Issued by NWS

Home | Current Version | Previous Version | Graphics & Text | Print | Product List | Glossary On
Versions: 1 2 3 4 5 6 7 8 9 10 11 12 13 14 15 16 17 18 19 20 21 22 23 24 25 26 27 28 29 30 31 32 33 34 35 36 37 38 39 40 41 42 43 44 45 46 47 48 49 50
000
ASUS43 KOAX 162302
RWRNE

WEATHER ROUNDUP FOR NEBRASKA
NATIONAL WEATHER SERVICE OMAHA NE
600 PM CDT MON OCT 16 2017

NOTES: SATELLITE DATA IS BEING USED TO AUGMENT CLOUD COVER ABOVE
       12000 FEET.
       "FAIR" INDICATES FEW OR NO CLOUDS BELOW 12,000 FEET WITH NO
       SIGNIFICANT WEATHER AND/OR OBSTRUCTIONS TO VISIBILITY.


NEZ001>004-019>022-054>056-170000-
NEBRASKA PANHANDLE

CITY           SKY/WX    TMP DP  RH WIND       PRES   REMARKS
SCOTTSBLUFF    CLOUDY    68  22  17 NW12      30.13R
ALLIANCE       CLOUDY    69  28  21 N9        30.11R
CHADRON        SUNNY     72  23  16 NW6       30.09S
GORDON         FAIR      66  29  25 W5        30.08F
KIMBALL        SUNNY     73  16  11 NW13G21   30.17S
SIDNEY         CLOUDY    75  14  10 N14       30.14S
$$

NEZ057>060-069>072-079>082-170000-
SOUTHWEST NEBRASKA

CITY           SKY/WX    TMP DP  RH WIND       PRES   REMARKS
NORTH PLATTE   CLEAR     72  38  29 SW3       30.05F
IMPERIAL       CLOUDY    77  13   9 NW8       30.09S
LEXINGTON      CLEAR     75  34  22 S16G22    30.06F
MCCOOK         SUNNY     72  36  26 S10       30.08F
OGALLALA       CLOUDY    78  26  14 NW7       30.08F
$$

NEZ005>010-023>029-035>040-094-170000-
NORTH CENTRAL NEBRASKA

CITY           SKY/WX    TMP DP  RH WIND       PRES   REMARKS
VALENTINE      CLEAR     76  29  17 NW10      30.04R
AINSWORTH      CLEAR     74  35  24 CALM      30.04R
BROKEN BOW     CLOUDY    75  45  34 SW3       30.05F
O`NEILL        CLEAR     72  41  32 S8        30.03F
ORD            CLEAR     72  36  26 S8        30.04F
THEDFORD       CLEAR     73  29  20 CALM      30.05S
$$

NEZ041-046>049-061>064-073>077-083>087-170000-
SOUTH CENTRAL NEBRASKA

CITY           SKY/WX    TMP DP  RH WIND       PRES   REMARKS
GRAND ISLAND   CLEAR     72  36  26 S14       30.09F
AURORA         CLEAR     71  36  27 S10       30.09F
HASTINGS       CLEAR     72  34  24 S8G20     30.10F
HEBRON         CLEAR     72  35  26 S13G20    30.14F
HOLDREGE       CLEAR     74  37  25 S16G22    30.08F
KEARNEY        CLEAR     73  36  25 S17       30.08F
YORK           CLEAR     72  36  26 S12       30.11F
$$

NEZ011>018-030>034-042>045-170000-
NORTHEAST NEBRASKA

CITY           SKY/WX    TMP DP  RH WIND       PRES   REMARKS
NORFOLK        CLEAR     72  35  25 S15       30.05F
ALBION         CLEAR     73  38  27 S13G18    30.07S
BLAIR          CLEAR     71  38  30 S14G20    30.10F
COLUMBUS       CLEAR     72  37  28 S12       30.08F
FREMONT        CLEAR     72  37  28 S10G17    30.10F
TEKAMAH        CLEAR     70  36  28 S9        30.08F
WAYNE          CLEAR     71  32  23 S13G21    30.05S
$$

NEZ050>053-065>068-078-088>093-170000-
SOUTHEAST NEBRASKA

CITY           SKY/WX    TMP DP  RH WIND       PRES   REMARKS
LINCOLN        CLEAR     71  39  31 S12       30.12F
OMAHA EPPLEY   PTCLDY    71  36  27 S12       30.11F
FALLS CITY     CLEAR     69  36  29 S13       30.18F
NEBRASKA CITY  CLEAR     69  40  34 SW14      30.16S
PLATTSMOUTH    CLEAR     69  38  32 S12       30.14S
$$

NEZ044-045-051>053-067-170000-
OMAHA AREA

CITY           SKY/WX    TMP DP  RH WIND       PRES   REMARKS
OMAHA EPPLEY   PTCLDY    71  36  27 S12       30.11F
BLAIR          CLEAR     71  38  30 S14G20    30.10F
FREMONT        CLEAR     72  37  28 S10G17    30.10F
MILLARD        CLEAR     73  40  30 S8        30.12S
OFFUTT AFB     CLEAR     71  38  30 S9        30.12S
PLATTSMOUTH    CLEAR     69  38  32 S12       30.14S
WAHOO          FAIR      72  37  27 S14       30.11S
$$



USA.gov is the U.S. government's official web portal to all federal, state and local government web resources and services.